Simultaneous Nadir Overpasses (SNOs) Predictions

Prediction of SNOs between AQUA and NPP Satellite Orbit:

Table of predicted SNOs for the next 14.0 days since TLE Epoch: 4/13/2013
Index Date (AQUA) Time (AQUA) Lat,Lon (AQUA) SZA (AQUA ) Date (NPP) Time (NPP) Lat,Lon (NPP) SZA (NPP ) Distance(km) Time Diff (sec)
1 04/14/2013 07:11:51 76.78, -46.22 86.97 04/14/2013 07:11:27 76.78, -46.26 87.00 0.82 24
2 04/14/2013 08:01:03 -77.49, 124.13 93.91 04/14/2013 08:01:56 -77.49, 124.08 93.94 1.36 53
3 04/16/2013 22:39:19 -75.60,-101.78 92.61 04/16/2013 22:38:05 -75.62,-101.90 92.54 4.41 74
4 04/16/2013 23:28:12 77.16, 71.07 85.55 04/16/2013 23:28:15 77.17, 71.12 85.53 1.28 3
5 04/19/2013 14:55:22 -76.78, 17.91 94.93 04/19/2013 14:54:35 -76.79, 18.02 94.92 2.97 47
6 04/19/2013
